Cando, ND

2:29 PM CST on February 24, 2018 (GMT -0600)
Cando

Weather History for K9D7 - October, 2013

Change the Weather History Date:

Tuesday, October 1, 2013

  Actual Average (KDVL) Record (KDVL)
Temperature  
Mean Temperature 54 °F -  
Max Temperature 66 °F 63 °F 93 °F (1989)
Min Temperature 41 °F 38 °F 21 °F (1974)
Degree Days  
Heating Degree Days 12    
Growing Degree Days 4 (Base 50)    
Moisture  
Dew Point 37 °F    
Average Humidity 62    
Maximum Humidity 100    
Minimum Humidity 26    
Precipitation  
Precipitation 0.00 in - - ()
Sea Level Pressure  
Sea Level Pressure 29.71 in    
Wind  
Wind Speed 15 mph (WSW)    
Max Wind Speed 32 mph    
Max Gust Speed 40 mph    
Visibility 10 miles    
Events      
Averages and records for this station are not official NWS values.
T = Trace of Precipitation, MM = Missing Value Source: NWS Daily Summary

Daily Weather History Graph

Daily Weather History Graph

Search for Another Location

Airport or City:

Trip Planner

Search our weather history database for the weather conditions in past years. The results will help you decide how hot, cold, wet, or windy it might be!

Date:

Astronomy

Oct. 01, 2013 Rise Set
Actual Time 7:36 AM CDT 7:15 PM CDT
Civil Twilight 7:05 AM CDT 7:46 PM CDT
Nautical Twilight 6:29 AM CDT 8:22 PM CDT
Astronomical Twilight 5:52 AM CDT 8:59 PM CDT
Moon 3:58 AM CDT (10/1) 5:30 PM CDT (10/1)
Length of Visible Light 12h 40m
Length of Day
11h 38m
Waning Crescent, 12% of the Moon is Illuminated
Oct 1
Waning Crescent
Oct 4
New
Oct 11
First Quarter
Oct 18
Full
Oct 26
Last Quarter

Hourly Weather History & Observations

Time (CDT) Temp. Windchill Dew Point Humidity Pressure Visibility Wind Dir Wind Speed Gust Speed Precip Events Conditions
12:15 AM 48.2 °F - 48.2 °F 100% 29.54 in 10.0 mi SW 10.4 mph - N/A   Partly Cloudy
12:35 AM 48.2 °F - 48.2 °F 100% 29.54 in 10.0 mi SW 9.2 mph - N/A   Clear
12:55 AM 48.2 °F - 46.4 °F 93% 29.53 in 10.0 mi SW 8.1 mph - N/A   Clear
1:15 AM 48.2 °F - 46.4 °F 93% 29.54 in 10.0 mi SW 10.4 mph - N/A   Clear
1:35 AM 48.2 °F - 46.4 °F 93% 29.54 in 10.0 mi SW 11.5 mph - N/A   Clear
1:55 AM 48.2 °F - 46.4 °F 93% 29.54 in 10.0 mi WSW 12.7 mph - N/A   Clear
2:15 AM 48.2 °F - 44.6 °F 87% 29.54 in 10.0 mi WSW 13.8 mph - N/A   Clear
2:35 AM 48.2 °F - 44.6 °F 87% 29.55 in 10.0 mi WSW 15.0 mph - N/A   Clear
2:55 AM 48.2 °F - 42.8 °F 82% 29.55 in 10.0 mi WSW 13.8 mph - N/A   Clear
3:15 AM 48.2 °F - 41.0 °F 76% 29.55 in 10.0 mi West 16.1 mph 21.9 mph N/A   Clear
3:35 AM 48.2 °F - 41.0 °F 76% 29.55 in 10.0 mi West 18.4 mph 24.2 mph N/A   Clear
3:55 AM 48.2 °F - 41.0 °F 76% 29.56 in 10.0 mi West 18.4 mph 23.0 mph N/A   Clear
4:15 AM 48.2 °F - 39.2 °F 71% 29.57 in 10.0 mi West 16.1 mph 23.0 mph N/A   Clear
4:35 AM 48.2 °F - 39.2 °F 71% 29.57 in 10.0 mi West 16.1 mph - N/A   Clear
4:55 AM 46.4 °F 40.4 °F 39.2 °F 76% 29.58 in 10.0 mi West 13.8 mph - N/A   Clear
5:15 AM 46.4 °F 39.8 °F 39.2 °F 76% 29.58 in 10.0 mi West 16.1 mph - N/A   Clear
5:35 AM 46.4 °F 39.8 °F 39.2 °F 76% 29.59 in 10.0 mi West 16.1 mph - N/A   Clear
5:55 AM 46.4 °F 40.1 °F 39.2 °F 76% 29.60 in 10.0 mi WSW 15.0 mph - N/A   Clear
6:15 AM 44.6 °F 38.1 °F 39.2 °F 81% 29.61 in 10.0 mi WSW 13.8 mph - N/A   Clear
6:35 AM 44.6 °F 38.4 °F 39.2 °F 81% 29.62 in 10.0 mi WSW 12.7 mph - N/A   Clear
6:55 AM 44.6 °F 37.8 °F 39.2 °F 81% 29.62 in 10.0 mi WSW 15.0 mph 18.4 mph N/A   Clear
7:15 AM 44.6 °F 38.1 °F 37.4 °F 76% 29.64 in 10.0 mi WSW 13.8 mph - N/A   Clear
7:35 AM 44.6 °F 38.4 °F 37.4 °F 76% 29.64 in 10.0 mi WSW 12.7 mph - N/A   Clear
7:55 AM 44.6 °F 38.1 °F 37.4 °F 76% 29.65 in 10.0 mi WSW 13.8 mph - N/A   Clear
8:15 AM 44.6 °F 38.4 °F 37.4 °F 76% 29.66 in 10.0 mi WSW 12.7 mph - N/A   Clear
8:35 AM 46.4 °F 40.4 °F 37.4 °F 71% 29.66 in 10.0 mi WSW 13.8 mph 19.6 mph N/A   Clear
8:55 AM 48.2 °F - 39.2 °F 71% 29.67 in 10.0 mi WSW 16.1 mph - N/A   Clear
9:15 AM 50.0 °F - 39.2 °F 66% 29.68 in 10.0 mi West 18.4 mph 23.0 mph N/A   Clear
9:35 AM 50.0 °F - 39.2 °F 66% 29.69 in 10.0 mi West 20.7 mph 24.2 mph N/A   Clear
9:55 AM 51.8 °F - 39.2 °F 62% 29.70 in 10.0 mi West 21.9 mph 28.8 mph N/A   Clear
10:15 AM 53.6 °F - 39.2 °F 58% 29.70 in 10.0 mi West 20.7 mph 26.5 mph N/A   Clear
10:35 AM 55.4 °F - 37.4 °F 51% 29.70 in 10.0 mi West 23.0 mph 32.2 mph N/A   Clear
10:55 AM 55.4 °F - 39.2 °F 54% 29.71 in 10.0 mi West 23.0 mph 32.2 mph N/A   Clear
11:15 AM 57.2 °F - 37.4 °F 48% 29.71 in 10.0 mi West 25.3 mph 31.1 mph N/A   Clear
11:35 AM 57.2 °F - 37.4 °F 48% 29.71 in 10.0 mi West 23.0 mph 32.2 mph N/A   Clear
11:55 AM 59.0 °F - 37.4 °F 45% 29.72 in 10.0 mi West 27.6 mph 34.5 mph N/A   Clear
12:15 PM 59.0 °F - 37.4 °F 45% 29.72 in 10.0 mi West 23.0 mph 31.1 mph N/A   Clear
12:35 PM 60.8 °F - 37.4 °F 42% 29.72 in 10.0 mi West 26.5 mph 31.1 mph N/A   Clear
12:55 PM 60.8 °F - 37.4 °F 42% 29.72 in 10.0 mi West 27.6 mph 38.0 mph N/A   Clear
1:15 PM 62.6 °F - 37.4 °F 39% 29.73 in 10.0 mi West 26.5 mph 33.4 mph N/A   Clear
1:35 PM 62.6 °F - 35.6 °F 37% 29.73 in 10.0 mi West 25.3 mph 33.4 mph N/A   Clear
1:55 PM 62.6 °F - 35.6 °F 37% 29.74 in 10.0 mi West 23.0 mph 36.8 mph N/A   Clear
2:15 PM 64.4 °F - 35.6 °F 34% 29.74 in 10.0 mi West 26.5 mph 35.7 mph N/A   Clear
2:35 PM 64.4 °F - 33.8 °F 32% 29.75 in 10.0 mi West 26.5 mph 32.2 mph N/A   Clear
2:55 PM 64.4 °F - 33.8 °F 32% 29.75 in 10.0 mi West 32.2 mph 38.0 mph N/A   Clear
3:15 PM 64.4 °F - 32.0 °F 30% 29.75 in 10.0 mi West 27.6 mph 38.0 mph N/A   Clear
3:35 PM 64.4 °F - 32.0 °F 30% 29.76 in 10.0 mi West 24.2 mph 40.3 mph N/A   Clear
3:55 PM 66.2 °F - 32.0 °F 28% 29.77 in 10.0 mi West 17.3 mph 31.1 mph N/A   Clear
4:15 PM 64.4 °F - 32.0 °F 30% 29.77 in 10.0 mi West 20.7 mph 35.7 mph N/A   Clear
4:35 PM 64.4 °F - 32.0 °F 30% 29.77 in 10.0 mi West 25.3 mph 33.4 mph N/A   Clear
4:55 PM 64.4 °F - 32.0 °F 30% 29.77 in 10.0 mi West 23.0 mph 32.2 mph N/A   Clear
5:15 PM 64.4 °F - 28.4 °F 26% 29.78 in 10.0 mi West 25.3 mph 32.2 mph N/A   Clear
5:35 PM 64.4 °F - 30.2 °F 28% 29.79 in 10.0 mi West 23.0 mph 28.8 mph N/A   Clear
5:55 PM 64.4 °F - 30.2 °F 28% 29.80 in 10.0 mi West 17.3 mph 24.2 mph N/A   Clear
6:15 PM 62.6 °F - 32.0 °F 32% 29.80 in 10.0 mi West 15.0 mph 19.6 mph N/A   Clear
6:35 PM 60.8 °F - 32.0 °F 34% 29.80 in 10.0 mi West 16.1 mph 20.7 mph N/A   Clear
6:55 PM 59.0 °F - 32.0 °F 36% 29.81 in 10.0 mi West 11.5 mph - N/A   Clear
7:15 PM 55.4 °F - 33.8 °F 44% 29.81 in 10.0 mi WSW 9.2 mph - N/A   Clear
7:35 PM 51.8 °F - 35.6 °F 54% 29.82 in 10.0 mi WSW 8.1 mph - N/A   Clear
7:55 PM 48.2 °F - 35.6 °F 62% 29.82 in 10.0 mi WSW 8.1 mph - N/A   Clear
8:15 PM 48.2 °F - 35.6 °F 62% 29.83 in 10.0 mi SW 9.2 mph - N/A   Clear
8:35 PM 46.4 °F 41.9 °F 35.6 °F 66% 29.83 in 10.0 mi SW 9.2 mph - N/A   Clear
8:55 PM 46.4 °F 41.9 °F 35.6 °F 66% 29.84 in 10.0 mi WSW 9.2 mph - N/A   Clear
9:15 PM 44.6 °F 40.2 °F 35.6 °F 71% 29.84 in 10.0 mi WSW 8.1 mph - N/A   Clear
9:35 PM 44.6 °F 40.7 °F 35.6 °F 71% 29.85 in 10.0 mi WSW 6.9 mph - N/A   Clear
9:55 PM 42.8 °F 38.6 °F 35.6 °F 76% 29.85 in 10.0 mi SW 6.9 mph - N/A   Clear
10:15 PM 41.0 °F 37.1 °F 35.6 °F 81% 29.86 in 10.0 mi WSW 5.8 mph - N/A   Clear
10:35 PM 41.0 °F 36.4 °F 35.6 °F 81% 29.86 in 10.0 mi WSW 6.9 mph - N/A   Clear
10:55 PM 41.0 °F 35.8 °F 35.6 °F 81% 29.87 in 10.0 mi SW 8.1 mph - N/A   Clear
11:15 PM 41.0 °F 36.4 °F 35.6 °F 81% 29.87 in 10.0 mi WSW 6.9 mph - N/A   Clear
11:35 PM 41.0 °F 39.0 °F 35.6 °F 81% 29.87 in 10.0 mi SW 3.5 mph - N/A   Clear
11:55 PM 41.0 °F 38.0 °F 35.6 °F 81% 29.87 in 10.0 mi SW 4.6 mph - N/A   Clear